Terminal Aerodrome Forecast
Issued by NWS Blacksburg, VA

Current Version | Previous Version | Graphics & Text | Print | Product List | Glossary On
Versions: 1 2 3 4 5 6 7 8 9 10 11 12 13 14 15 16 17 18 19 20 21 22 23 24 25 26 27 28 29 30 31 32 33 34 35 36 37 38 39 40 41 42 43 44
000
FTUS41 KRNK 160901 AAA
TAFBLF
TAF AMD
KBLF 160901Z 1609/1706 27006KT P6SM -RA BKN003 OVC007
      TEMPO 1609/1610 4SM BR SCT003 OVC015
     FM161100 29006KT 5SM BR BKN007 BKN045
     FM161400 28005KT P6SM OVC025
     FM162000 30007KT P6SM BKN035
     FM170100 32003KT P6SM SCT035 BKN050=

USA.gov is the U.S. government's official web portal to all federal, state and local government web resources and services.